User: anonymous
Location: Unspecified
(0.0000°N, 0.0000°E)
Time: 00:17:00
(UTC+00:00)
Language:

HST - Orbit

View from above orbital plane
View from above orbital plane
View from above satellite
View from above satellite

Ground track
Ground track

The orbit data is extracted from the following two-line orbital elements,

1 20580U 90037B   14265.04890076  .00002502  00000-0  15675-3 0  1174
2 20580 028.4693 120.2463 0002760 243.2012 252.9909 15.05770156139338
Epoch (UTC): 22 September 2014 01:10:25
Eccentricity: 0.0002760
inclination: 28.4693°
perigee height: 547 km
apogee height: 551 km
right ascension of ascending node: 120.2463°
argument of perigee: 243.2012°
revolutions per day: 15.05770156
mean anomaly at epoch: 252.9909°
orbit number at epoch: 13933

The dashed part of the orbit path shows where the satellite is in the earth's shadow,  

DLR